[[{"header":{"parameterUnit":"m.s-1","parameterCategory":1,"la1":30.2991,"la2":30.254,"lo1":-89.0895,"lo2":-89.0444,"dy":0.0017,"dx":0.0017,"nx":28,"ny":28,"refTime":"2025-12-27T03:00:00:Z","depth":0,"parameterNumber":2,"parameterNumberName":"U-component_of_WINDS"},"data":[0,0,0,0,0,0,0,0,0,0,0,0,0,0,0,0,0,0,0,0,0,0,0,0,0,0,0,0,0,0,0,0,0,0,0,0,0,0,0,0,0,0,0,0,0,0,0,0,0,0,0,0,0,0,0,0,0,0,-0.8802,-0.8803,0,-0.8857,-0.8858,-0.8858,-0.89,-0.8901,-0.8901,-0.8901,-0.8955,-0.8956,-0.8957,0,0,0,0,0,0,0,0,0,0,0,0,0,-0.8731,-0.8732,-0.8802,-0.8803,-0.8803,-0.8857,-0.8858,-0.8858,-0.89,-0.8901,-0.8901,-0.8902,-0.8955,-0.8956,-0.8957,0,0,0,0,0,0,0,0,0,0,0,0,0,-0.8771,-0.8732,-0.8802,-0.8831,-0.8834,-0.8857,-0.8858,-0.8859,-0.89,-0.8901,-0.8901,-0.8902,-0.8954,-0.8956,-0.8958,-0.8956,0,0,-0.8962,-0.8963,0,0,0,0,0,0,0,0,-0.8769,-0.8774,-0.8826,-0.8829,-0.8832,-0.8872,-0.8852,-0.8891,-0.89,-0.8875,-0.8901,-0.8902,-0.8927,-0.8931,-0.894,-0.8958,-0.896,-0.8963,-0.8964,-0.8964,-0.8965,0,0,0,0,0,0,0,-0.8766,-0.8772,-0.8824,-0.8827,-0.8831,-0.884,-0.8847,-0.886,-0.8897,-0.8877,-0.888,-0.8886,-0.8929,-0.8938,-0.8941,-0.8961,-0.8963,-0.8964,-0.8965,-0.8966,-0.8979,-0.8978,0,0,0,0,0,0,-0.8759,-0.8769,-0.8822,-0.8825,-0.8802,-0.8841,-0.8848,-0.8859,-0.8897,-0.8903,-0.8886,-0.8888,-0.8935,-0.894,-0.8943,-0.8942,-0.8964,-0.8966,-0.8967,-0.898,-0.8979,-0.8978,0,0,0,0,0,0,-0.8757,-0.8763,-0.882,-0.8798,-0.8806,-0.8842,-0.8853,-0.886,-0.8869,-0.8903,-0.891,-0.8889,-0.8936,-0.8941,-0.8952,-0.8945,-0.8966,-0.8968,-0.898,-0.8979,-0.8979,-0.8941,0,0,0,0,0,0,-0.8755,-0.8763,-0.8763,-0.8798,-0.8807,-0.8828,-0.8853,-0.886,-0.8872,-0.8876,-0.8908,-0.8914,-0.8937,-0.8949,-0.8954,-0.8947,-0.8969,-0.8981,-0.898,-0.8979,-0.8943,-0.8939,-0.8935,0,0,0,0,0,-0.8752,-0.875,-0.8763,-0.8769,-0.8808,-0.8828,-0.8833,-0.886,-0.8871,-0.8871,-0.8893,-0.8913,-0.8945,-0.895,-0.8955,-0.8949,-0.8982,-0.898,-0.8979,-0.8944,-0.894,-0.8935,0,0,0,0,0,0,-0.8712,-0.8755,-0.877,-0.8778,-0.8799,-0.8835,-0.8836,-0.8854,-0.8872,-0.8874,-0.8906,-0.8913,-0.892,-0.8936,-0.8941,-0.8949,-0.8966,-0.8965,-0.8938,-0.8934,-0.893,-0.8925,-0.8971,0,0,0,0,0,-0.8705,-0.8718,-0.8754,-0.8758,-0.8768,-0.88,-0.8809,-0.8829,-0.8851,-0.886,-0.8883,-0.8903,-0.8918,-0.8927,-0.8942,-0.8946,-0.8952,-0.8944,-0.894,-0.8937,-0.8936,-0.8937,-0.8934,-0.8974,-0.8974,-0.8974,0,0,-0.8689,-0.8714,-0.872,-0.8751,-0.8769,-0.8781,-0.8807,-0.8819,-0.8827,-0.8861,-0.8873,-0.889,-0.8915,-0.8922,-0.8926,-0.8935,-0.8926,-0.8935,-0.8932,-0.8933,-0.8936,-0.8932,-0.8928,-0.8973,-0.8973,-0.8973,0,0,-0.8665,-0.8686,-0.8691,-0.8709,-0.8736,-0.8758,-0.8759,-0.8792,-0.8805,-0.8817,-0.8842,-0.8853,-0.8878,-0.8894,-0.8906,-0.8888,-0.8906,-0.8892,-0.8871,-0.8872,-0.8869,-0.8867,-0.8859,-0.8856,-0.8891,-0.8891,-0.8891,0,-0.8641,-0.8661,-0.8691,-0.8701,-0.8713,-0.8745,-0.875,-0.8766,-0.8797,-0.8804,-0.8814,-0.8846,-0.8865,-0.8875,-0.8871,-0.888,-0.8881,-0.8888,-0.8868,-0.8865,-0.8863,-0.8856,-0.8853,-0.8889,-0.8889,-0.8889,-0.8889,0,-0.8629,-0.8642,-0.8643,-0.8672,-0.8685,-0.8692,-0.8722,-0.8731,-0.8749,-0.8769,-0.878,-0.8804,-0.8825,-0.8829,-0.8847,-0.8841,-0.8846,-0.8862,-0.8879,-0.8857,-0.885,-0.8848,-0.8886,-0.8887,-0.8887,-0.8888,0,0,-0.8582,-0.8628,-0.8627,-0.864,-0.8673,-0.8683,-0.8691,-0.8712,-0.8718,-0.8738,-0.8745,-0.8765,-0.8779,-0.8792,-0.8812,-0.8813,-0.8796,-0.8829,-0.883,-0.882,-0.8789,-0.8776,-0.8773,-0.8808,-0.8808,-0.8808,-0.8787,0,-0.8562,-0.8579,-0.8606,-0.8614,-0.8625,-0.8656,-0.8663,-0.8683,-0.8701,-0.8713,-0.8734,-0.8747,-0.8766,-0.8773,-0.8776,-0.8797,-0.879,-0.8799,-0.8813,-0.8813,-0.8805,-0.877,-0.8756,-0.8735,-0.8785,-0.8784,-0.8784,0,-0.8541,-0.856,-0.8568,-0.8599,-0.8605,-0.8611,-0.8631,-0.8643,-0.8666,-0.8679,-0.8693,-0.8715,-0.8724,-0.8741,-0.8753,-0.8759,-0.8766,-0.8777,-0.8777,-0.8778,-0.8796,-0.8768,-0.8729,-0.8725,-0.8781,-0.8781,-0.8781,0,-0.8503,-0.8531,-0.8539,-0.8549,-0.8586,-0.8589,-0.8604,-0.8628,-0.8638,-0.8656,-0.8663,-0.8681,-0.8691,-0.8704,-0.873,-0.874,-0.8738,-0.8758,-0.8748,-0.8747,-0.8745,-0.8745,-0.8705,-0.8753,-0.8753,-0.8753,-0.8753,0,-0.8477,-0.8481,-0.8522,-0.8527,-0.8532,-0.8563,-0.8566,-0.8584,-0.8605,-0.8613,-0.8641,-0.8648,-0.8682,-0.8693,-0.8713,-0.8719,-0.8723,-0.8733,-0.8738,-0.873,-0.8728,-0.8734,-0.8735,-0.8752,-0.8752,-0.8752,-0.8753,0,-0.8435,-0.8463,-0.8474,-0.8508,-0.8516,-0.8518,-0.8546,-0.8552,-0.8572,-0.8582,-0.8586,-0.8618,-0.8632,-0.8659,-0.868,-0.8694,-0.8695,-0.8705,-0.8687,-0.8689,-0.8678,-0.8678,-0.8639,-0.8635,-0.8687,-0.8686,-0.8686,0,-0.8416,-0.842,-0.8454,-0.8461,-0.8476,-0.8488,-0.8498,-0.8529,-0.8539,-0.8565,-0.8566,-0.8583,-0.8597,-0.8618,-0.8642,-0.8658,-0.8668,-0.8653,-0.867,-0.8661,-0.8665,-0.8664,-0.8664,-0.8648,-0.8648,-0.8647,-0.8647,0,-0.8379,-0.8392,-0.8407,-0.8425,-0.8437,-0.8454,-0.8471,-0.8476,-0.851,-0.852,-0.8534,-0.8545,-0.8567,-0.8582,-0.8602,-0.8617,-0.8637,-0.8642,-0.864,-0.863,-0.8619,-0.8623,-0.8674,-0.8642,-0.8642,-0.8643,-0.8643,-0.8643,-0.8346,-0.835,-0.8374,-0.8389,-0.8406,-0.8422,-0.8428,-0.8449,-0.8462,-0.8482,-0.85,-0.8512,-0.8535,-0.8563,-0.8577,-0.8587,-0.8596,-0.8594,-0.8594,-0.8592,-0.8588,-0.8619,-0.8591,-0.8591,-0.8591,-0.8591,-0.8591,0,-0.8308,-0.8326,-0.8339,-0.8363,-0.8374,-0.8393,-0.8413,-0.8421,-0.8432,-0.8452,-0.8465,-0.8481,-0.8496,-0.8522,-0.8538,-0.8541,-0.855,-0.8544,-0.8543,-0.8546,-0.8579,-0.8578,-0.8536,-0.8536,-0.8536,-0.8536,-0.8536,-0.8536,-0.829,-0.8297,-0.8313,-0.8328,-0.8346,-0.8359,-0.8368,-0.8382,-0.8398,-0.8415,-0.8427,-0.8444,-0.8466,-0.8484,-0.8498,-0.8505,-0.8509,-0.8499,-0.8509,-0.8539,-0.8544,-0.8549,-0.8548,-0.85,-0.85,-0.8475,-0.8475,-0.8475]},{"header":{"parameterUnit":"m.s-1","parameterCategory":1,"la1":30.2991,"la2":30.254,"lo1":-89.0895,"lo2":-89.0444,"dy":0.0017,"dx":0.0017,"nx":28,"ny":28,"refTime":"2025-12-27T03:00:00:Z","depth":0,"parameterNumber":3,"parameterNumberName":"V-component_of_WINDS"},"data":[0,0,0,0,0,0,0,0,0,0,0,0,0,0,0,0,0,0,0,0,0,0,0,0,0,0,0,0,0,0,0,0,0,0,0,0,0,0,0,0,0,0,0,0,0,0,0,0,0,0,0,0,0,0,0,0,0,0,3.7341,3.7342,0,3.7392,3.7393,3.7394,3.7385,3.7384,3.7383,3.7382,3.7432,3.7434,3.7436,0,0,0,0,0,0,0,0,0,0,0,0,0,3.7235,3.7237,3.7341,3.7342,3.7343,3.7392,3.7393,3.7394,3.7385,3.7384,3.7383,3.7382,3.7431,3.7434,3.7436,0,0,0,0,0,0,0,0,0,0,0,0,0,3.7283,3.7238,3.7341,3.7344,3.7345,3.7392,3.7393,3.7394,3.7385,3.7384,3.7382,3.7381,3.743,3.7433,3.7437,3.7483,0,0,3.7447,3.7448,0,0,0,0,0,0,0,0,3.728,3.7287,3.7343,3.7344,3.7345,3.7381,3.7374,3.7424,3.7385,3.737,3.7382,3.738,3.7416,3.742,3.7433,3.7486,3.7488,3.7447,3.7449,3.745,3.7451,0,0,0,0,0,0,0,3.7277,3.7285,3.7361,3.7344,3.7345,3.7343,3.7348,3.7383,3.7399,3.7371,3.737,3.7377,3.7416,3.7429,3.7434,3.7489,3.7447,3.745,3.7452,3.7453,3.7586,3.7587,0,0,0,0,0,0,3.7273,3.7282,3.736,3.7363,3.7309,3.7346,3.7352,3.7371,3.7399,3.7402,3.7378,3.7376,3.7425,3.743,3.7435,3.7495,3.745,3.7453,3.7455,3.7584,3.7586,3.7588,0,0,0,0,0,0,3.7271,3.728,3.7358,3.7322,3.7332,3.7349,3.737,3.7372,3.7386,3.7404,3.7407,3.7389,3.7424,3.7431,3.7472,3.7496,3.7455,3.7458,3.7582,3.7585,3.7587,3.7612,0,0,0,0,0,0,3.7268,3.7279,3.7297,3.7323,3.7334,3.7394,3.7372,3.7374,3.7392,3.739,3.7415,3.7418,3.7423,3.7468,3.7476,3.75,3.746,3.758,3.7583,3.7586,3.7609,3.7615,3.7619,0,0,0,0,0,3.7264,3.7301,3.7298,3.7308,3.7357,3.7396,3.7402,3.7408,3.7394,3.7412,3.7424,3.7417,3.7492,3.7472,3.7481,3.7506,3.7579,3.7582,3.7586,3.7606,3.7613,3.7619,0,0,0,0,0,0,3.7277,3.7304,3.7302,3.7348,3.737,3.7394,3.7417,3.7414,3.744,3.7437,3.7442,3.7448,3.7491,3.7502,3.748,3.7554,3.7533,3.7539,3.7546,3.7553,3.7558,3.7555,3.7463,0,0,0,0,0,3.7285,3.7314,3.7337,3.7376,3.7387,3.74,3.7417,3.742,3.7442,3.7451,3.7466,3.7488,3.7516,3.7534,3.7561,3.761,3.7616,3.7632,3.7637,3.7641,3.7647,3.7676,3.7684,3.7599,3.7599,3.7599,0,0,3.7302,3.7321,3.7339,3.7379,3.7396,3.7427,3.7408,3.744,3.7464,3.7456,3.7497,3.7509,3.7533,3.7579,3.76,3.759,3.7671,3.7646,3.7649,3.7652,3.768,3.7688,3.7695,3.7602,3.7601,3.7601,0,0,3.735,3.7366,3.7402,3.742,3.7447,3.7456,3.7464,3.7489,3.7498,3.7539,3.7535,3.7562,3.761,3.7628,3.7644,3.7701,3.7696,3.7709,3.7738,3.7766,3.7773,3.7779,3.7801,3.7809,3.7714,3.7714,3.7714,0,3.7368,3.7414,3.742,3.7455,3.7473,3.7468,3.7505,3.7522,3.7555,3.7568,3.7557,3.7619,3.7635,3.7686,3.7701,3.7712,3.7723,3.7707,3.7771,3.7777,3.7783,3.7805,3.7813,3.7716,3.7715,3.7715,3.7715,0,3.7437,3.7469,3.7494,3.7529,3.755,3.7585,3.7597,3.7617,3.7618,3.7629,3.7672,3.7691,3.7723,3.7735,3.7735,3.7787,3.7781,3.777,3.7749,3.7793,3.7813,3.7821,3.7718,3.7717,3.7717,3.7716,0,0,3.7494,3.7533,3.7542,3.7559,3.7589,3.7614,3.7649,3.7682,3.7701,3.7724,3.7755,3.7796,3.7788,3.7805,3.7808,3.7832,3.788,3.7819,3.782,3.7832,3.7941,3.7951,3.796,3.7876,3.7877,3.7879,3.794,0,3.7546,3.761,3.7617,3.7674,3.7705,3.7702,3.7733,3.7755,3.7766,3.7794,3.7805,3.7836,3.782,3.7832,3.7855,3.7869,3.7902,3.7864,3.7906,3.7907,3.7902,3.797,3.798,3.8037,3.7947,3.7949,3.795,0,3.7616,3.7644,3.7705,3.7733,3.7746,3.7774,3.7806,3.7832,3.7857,3.7863,3.7884,3.7884,3.7921,3.7898,3.795,3.7924,3.7941,3.795,3.7953,3.7959,3.7933,3.798,3.8055,3.8064,3.7962,3.7961,3.796,0,3.7655,3.7707,3.7751,3.7765,3.7798,3.7818,3.7833,3.7857,3.7877,3.7904,3.7917,3.7948,3.7965,3.7989,3.7997,3.7979,3.805,3.8026,3.8057,3.8057,3.8074,3.8073,3.8154,3.8081,3.8081,3.8081,3.808,0,3.7715,3.7753,3.777,3.7797,3.784,3.7847,3.7889,3.7903,3.7924,3.7954,3.7952,3.798,3.7988,3.8018,3.8025,3.8068,3.8075,3.8082,3.8084,3.8084,3.8083,3.8097,3.8094,3.8083,3.8082,3.8082,3.8081,0,3.7766,3.7779,3.7827,3.7855,3.7863,3.7894,3.7918,3.7944,3.7955,3.7993,3.8002,3.8019,3.8054,3.8065,3.8106,3.811,3.8162,3.8159,3.8155,3.8155,3.8187,3.8185,3.8281,3.8296,3.821,3.8211,3.8212,0,3.7805,3.7834,3.7866,3.7887,3.7903,3.7935,3.7956,3.7965,3.7987,3.8019,3.8042,3.8077,3.8106,3.8162,3.8177,3.821,3.8209,3.8241,3.8214,3.8214,3.8213,3.8212,3.8216,3.8246,3.8247,3.8248,3.8248,0,3.7872,3.7878,3.7909,3.7943,3.7968,3.7995,3.802,3.8037,3.805,3.8074,3.8111,3.8134,3.8177,3.8213,3.8246,3.826,3.8258,3.8257,3.8266,3.8268,3.8265,3.827,3.8171,3.8255,3.8254,3.8254,3.8253,3.8253,3.792,3.7947,3.7975,3.801,3.8031,3.8055,3.8083,3.8097,3.8129,3.8166,3.8168,3.8209,3.8235,3.8279,3.8296,3.8327,3.8318,3.8331,3.8335,3.8338,3.8342,3.8258,3.8333,3.8333,3.8333,3.8332,3.8332,0,3.799,3.8008,3.804,3.8078,3.8106,3.81,3.8129,3.8153,3.8189,3.8213,3.8243,3.8286,3.832,3.8339,3.8374,3.8396,3.8396,3.8405,3.8405,3.8409,3.8347,3.8337,3.8405,3.8405,3.8405,3.8405,3.8405,3.8405,3.803,3.8077,3.8086,3.8143,3.816,3.8201,3.8218,3.8241,3.8261,3.831,3.834,3.8352,3.8375,3.8412,3.8444,3.8449,3.8463,3.8474,3.8478,3.842,3.8413,3.8406,3.8396,3.8476,3.8476,3.8537,3.8537,3.8538]}]]